Location: Feigenhofen
(48.4939°N, 10.7793°E)
Time: 16:05:13
(UTC+00:00)

Cosmos 2341 Rocket - Pass Details

Date: 26 May 2022
Orbit: 969 x 1003 km, 82.9° (Epoch: 28 June)

Event Time Altitude Azimuth Distance (km) Brightness Sun altitude
Rises 02:37:18 0° 347° (NNW) 3,734 7.5 -6.9°
Reaches altitude 10° 02:39:52 10° 344° (NNW) 2,784 6.8 -6.6°
Maximum altitude 02:46:06 57° 268° (W) 1,174 4.2 -5.9°
Drops below altitude 10° 02:52:18 10° 191° (SSW) 2,770 5.9 -5.1°
Sets 02:54:52 0° 188° (S) 3,714 6.6 -4.8°
